Regional Weather Roundup
Issued by NWS

Home | Current Version | Previous Version | Text Only | Print | Product List | Glossary Off
Versions: 1 2 3 4 5 6 7 8 9 10 11 12 13 14 15 16 17 18 19 20 21 22 23 24 25 26 27 28 29 30 31 32 33 34 35 36 37 38 39 40 41 42 43 44 45 46 47 48 49 50

749
ASUS43 KLOT 220600
RWRIL

ILLINOIS REGIONAL WEATHER ROUNDUP
NATIONAL WEATHER SERVICE CHICAGO/ROMEOVILLE IL
100 AM CDT FRI MAY 22 2015

NOTE: "FAIR" INDICATES FEW OR NO CLOUDS BELOW 12,000 FEET WITH NO
SIGNIFICANT WEATHER AND/OR OBSTRUCTIONS TO VISIBILITY.

* THESE STATIONS ARE NOT UNDER NWS QUALITY CONTROL. THEY ALSO MAY NOT
  REPORT WEATHER SUCH AS PRECIPITATION OR FOG.

ILZ001-002-007-009-015-016-024-220700-
NORTHWEST ILLINOIS

CITY           SKY/WX    TMP DP  RH WIND       PRES   REMARKS
MOLINE         CLEAR     54  44  69 W3        30.06R
6HR MIN TEMP:  53; 6HR MAX TEMP:  70;

STERLING*      CLEAR     54  43  66 SW7       30.05R
$$

ILZ003-004-008-010-011-017-018-220700-
NORTH CENTRAL ILLINOIS

CITY           SKY/WX    TMP DP  RH WIND       PRES   REMARKS
ROCKFORD       CLEAR     56  41  57 SW5       30.04S
6HR MIN TEMP:  54; 6HR MAX TEMP:  67;

$$

ILZ005-006-012>014-019>023-220700-
NORTHEAST ILLINOIS

CITY           SKY/WX    TMP DP  RH WIND       PRES   REMARKS
CHICAGO-OHARE  PTCLDY    59  40  49 SW12      30.01F
6HR MIN TEMP:  58; 6HR MAX TEMP:  67;

CHICAGO-MIDWAY PTCLDY    60  41  49 W10       30.03S
6HR MIN TEMP:  58; 6HR MAX TEMP:  69;

AURORA         CLEAR     55  42  61 SW9       30.03F
6HR MIN TEMP:  55; 6HR MAX TEMP:  67;

WAUKEGAN       PTCLDY    52  48  86 N8        30.02S
6HR MIN TEMP:  50; 6HR MAX TEMP:  66; 6HR PCP:  0.01;

DUPAGE AIRPORT CLEAR     54  41  61 SW9       30.02F
6HR MIN TEMP:  54; 6HR MAX TEMP:  66;

WHEELING       MOCLDY    57  40  52 CALM      30.04R
6HR MIN TEMP:  57; 6HR MAX TEMP:  67;

NORTHERLY ISL    N/A     60  38  43 W8          N/A
$$

LMZ740>746-220700-
SOUTHERN LAKE MICHIGAN

STATION/POSITION SKY/WX   TEMP    WIND        PRES    VSBY  WAVE
                          AIR SEA DIR/SP/G                  HT/PER
                          (F)     (DEG/KT/KT) (MB)    (MI)  (FT/S)
SOUTHERN BUOY              42 38  280/  4/  8 1018.0R         1
HARRISON CRIB              65     240/ 20/ 26   N/A
BURNHAM HARBOR             62     210/  7/  9   N/A
CALUMET HARBOR             59     210/  6/ 10   N/A
BURNS HARBOR               58     200/ 10/ 13 1017.6S
MICHIGAN CITY              58     180/ 12/ 14   N/A
MICHIGAN CITY 6N           55 51  220/ 10/ 12   N/A           1
ST. JOSEPH                 56 53  240/ 10/ 12   N/A           1/ 2
$$

ILZ025>027-034>036-040-047-049-050-058-095>099-220700-
WEST-CENTRAL ILLINOIS

CITY           SKY/WX    TMP DP  RH WIND       PRES   REMARKS
QUINCY         CLEAR     55  46  71 SW10      30.14R
$$

ILZ028>032-037-038-041>044-048-051>054-059>061-220700-
CENTRAL ILLINOIS

CITY           SKY/WX    TMP DP  RH WIND       PRES   REMARKS
DECATUR        CLEAR     55  44  66 SW10      30.13S
PEORIA         CLEAR     57  46  66 SW9       30.08F
6HR MIN TEMP:  57; 6HR MAX TEMP:  69;

SPRINGFIELD    CLEAR     56  45  66 SW6       30.13F
6HR MIN TEMP:  56; 6HR MAX TEMP:  68;

TAYLORVILLE    NOT AVBL
$$

ILZ033-039-045-046-055>057-062-063-220700-
EAST-CENTRAL ILLINOIS

CITY           SKY/WX    TMP DP  RH WIND       PRES   REMARKS
CHAMPAIGN      PTCLDY    52  44  74 SW14      30.12S
MATTOON        CLEAR     52  42  69 SW9       30.13F
$$

ILZ079-100>102-220700-
SOUTHWEST ILLINOIS

CITY           SKY/WX    TMP DP  RH WIND       PRES   REMARKS
BELLEVILLE     CLEAR     48  46  90 SW6       30.17F
CAHOKIA*       CLEAR     52  44  74 S3        30.18S
$$

ILZ064>066-069>071-074>076-080>082-084>086-088>090-092>094-220700-
SOUTH-CENTRAL ILLINOIS

CITY           SKY/WX    TMP DP  RH WIND       PRES   REMARKS
CARBONDALE     CLEAR     45  43  93 S3        30.21S
6HR MIN TEMP:  45; 6HR MAX TEMP:  60;

MT. VERNON     CLEAR     43  37  81 CALM      30.20S
$$

ILZ067-068-072-073-078-083-087-091-220700-
SOUTHEAST ILLINOIS

CITY           SKY/WX    TMP DP  RH WIND       PRES   REMARKS
LAWRENCEVILLE  CLEAR     50  43  77 W6        30.17S
$$

ABBREVIATIONS USED IN REMARKS
   TC - TEMPERATURE IN CELSIUS
  WCI - WIND CHILL INDEX
   HX - HEAT INDEX
  VSB - VISIBILITY
$$




USA.gov is the U.S. government's official web portal to all federal, state and local government web resources and services.